GFSFLT1_700_rhum_063.txt.gz
RH
27 24 22 18 15 14 16 16 18 17 17 16 16 16 15 16 16 15 15 19 27 18 23 20 19 23 51 24 26 33 44 54 64
31 28 25 23 22 20 19 19 19 19 19 18 18 18 18 18 17 18 18 18 18 19 19 19 20 21 22 22 23 55 54 48 55
34 37 37 34 30 28 26 24 24 23 23 22 22 21 21 21 20 20 20 19 19 20 20 21 22 22 23 22 22 21 22 23 24
29 30 33 36 38 40 42 42 43 42 42 41 40 39 38 35 35 34 31 28 26 25 23 22 21 21 20 19 19 18 17 16 16
37 33 34 36 38 38 38 38 37 37 38 41 42 43 42 43 42 41 40 38 36 34 31 28 24 21 19 18 16 14 13 12 11
42 40 40 37 40 44 44 44 45 45 47 47 47 46 43 40 42 40 39 40 40 40 38 35 31 27 23 20 18 16 14 12 12
43 42 43 43 42 42 44 46 47 48 49 50 50 50 50 50 50 48 44 41 39 38 36 37 36 32 28 26 23 21 18 16 15
46 46 44 44 44 44 44 43 45 47 48 50 51 52 52 52 52 52 52 48 37 34 34 34 35 35 32 29 27 26 25 24 23
46 46 47 47 47 45 44 44 44 44 46 48 49 50 51 52 52 53 54 53 38 36 39 39 37 36 34 31 29 30 30 31 31
46 46 47 47 48 48 48 47 45 45 46 46 46 49 51 51 52 53 56 55 44 40 45 44 39 38 36 34 32 33 34 34 34
50 54 55 53 49 49 48 49 49 48 48 48 48 48 50 51 52 54 55 57 51 42 44 44 41 39 38 36 34 35 36 37 37
55 55 56 56 55 53 51 51 51 50 50 50 51 52 51 51 52 55 55 58 56 46 45 45 44 43 42 41 38 37 39 39 40
37 35 36 43 51 57 59 59 58 57 55 54 54 55 55 54 54 54 57 57 60 52 47 48 49 51 53 51 44 40 40 42 42
40 38 35 34 40 49 56 59 60 64 64 62 61 61 59 58 57 57 58 59 60 59 52 52 52 53 58 60 56 49 45 44 45
43 44 43 41 45 50 56 56 55 58 63 62 60 59 58 56 60 62 61 62 61 63 59 56 57 57 59 63 65 65 62 58 50
49 47 48 47 48 48 54 54 58 58 62 68 66 64 66 64 64 66 67 66 65 66 66 63 62 62 64 64 64 67 70 65 59
58 52 47 45 45 52 56 55 56 62 67 69 74 79 74 68 66 69 72 75 74 69 73 72 70 70 70 71 64 79 84 74 68
46 47 40 33 40 46 52 56 60 67 73 72 75 75 70 74 69 67 71 74 78 77 75 80 82 78 80 77 71 91 95 88 87
23 29 32 40 49 54 49 54 64 67 64 81 86 89 85 86 81 70 67 76 77 84 87 87 95 90 86 95 88 93 99 98 99
34 32 37 42 46 47 52 50 51 59 65 66 65 98 88 83 81 79 78 76 78 98 100 100 100 100 95 100 100 100 100 100 99

GFSFLT1_700_rhum_066.txt.gz
RH
28 26 24 20 17 15 15 14 15 15 15 15 16 16 16 16 16 15 15 17 16 18 17 17 18 19 19 20 21 23 36 51 64
28 30 28 25 24 23 22 22 22 21 21 20 20 20 20 19 18 18 18 18 18 18 19 19 19 20 21 20 22 30 53 41 59
23 29 36 39 40 39 38 38 37 37 36 36 36 36 35 34 33 31 30 28 26 24 22 21 20 19 19 20 20 20 20 20 21
35 28 29 31 32 33 33 34 35 36 37 39 40 42 43 42 42 41 40 39 37 36 34 31 28 23 21 18 17 17 16 15 14
43 41 38 33 33 35 37 38 40 40 40 39 39 36 38 37 37 37 39 39 38 36 37 36 34 31 27 24 20 17 15 14 12
43 43 43 43 42 40 38 42 45 46 47 47 49 47 46 49 46 44 42 41 40 35 33 32 34 34 32 29 26 22 19 16 14
44 44 44 44 44 44 44 42 42 44 46 49 50 50 51 51 52 52 50 49 47 38 33 32 31 33 34 32 29 26 24 22 20
46 47 46 46 46 46 46 45 44 44 45 46 46 47 49 51 52 53 53 52 51 44 36 38 36 36 35 34 31 28 27 27 26
46 46 47 47 48 48 48 47 47 47 47 47 47 48 47 48 50 53 53 53 53 52 38 41 45 40 38 36 33 31 31 31 31
46 47 47 48 48 48 48 48 49 49 49 48 48 49 49 49 50 51 54 55 55 54 49 40 43 43 40 38 34 33 34 34 34
47 52 54 56 58 58 55 52 51 50 50 50 51 51 51 51 51 52 52 55 56 56 56 45 43 44 43 40 37 36 36 37 37
54 57 56 52 52 55 58 60 60 59 58 58 56 54 53 53 54 54 53 54 57 58 59 54 47 47 47 47 43 40 38 39 40
44 40 37 34 32 31 34 47 57 59 59 59 62 63 62 60 60 59 57 57 58 60 62 61 54 52 52 53 55 50 42 41 42
46 44 41 39 39 38 36 34 38 47 51 53 56 59 67 69 65 60 59 59 61 61 63 65 62 58 58 58 62 61 53 47 45
45 45 47 50 48 44 45 43 44 45 50 54 57 59 62 64 63 61 62 61 66 67 65 67 69 65 63 62 65 70 67 61 57
52 52 51 55 57 56 54 51 49 49 51 55 55 60 65 66 67 70 72 72 72 76 74 70 72 76 72 70 70 74 78 75 71
59 58 59 58 59 57 53 49 49 54 56 62 69 68 69 63 64 69 78 78 78 75 79 82 76 82 86 84 80 79 85 86 85
31 33 36 32 32 32 30 43 54 54 57 62 75 79 73 80 74 77 78 74 75 73 76 82 91 88 91 98 99 90 98 99 98
19 22 25 25 26 30 39 45 45 55 66 67 69 76 85 87 90 91 75 80 77 80 82 78 91 100 99 100 100 99 99 100 100
19 23 27 44 51 44 39 36 36 53 53 59 65 73 79 99 86 71 68 80 94 89 98 97 92 99 100 100 100 100 99 100 100

GFSFLT1_700_rhum_072.txt.gz
RH
27 28 27 26 26 26 26 26 26 27 28 30 32 34 34 35 34 34 34 32 31 28 26 24 22 20 20 20 20 21 25 57 70
25 23 25 28 29 32 34 36 38 40 40 41 41 41 41 41 40 39 39 39 38 38 36 35 32 30 25 22 19 19 37 40 42
40 41 36 31 27 25 25 27 29 30 32 33 34 35 37 38 38 36 35 34 34 34 33 34 35 35 31 26 23 19 17 17 16
44 44 45 45 46 47 47 41 32 28 34 39 41 42 44 43 44 43 42 42 43 41 38 32 31 32 34 32 27 22 18 16 14
46 46 47 47 47 47 47 48 49 48 44 41 44 47 48 49 50 50 50 50 50 49 45 38 33 31 30 33 33 29 25 21 16
45 45 45 45 45 46 46 46 46 46 45 46 48 48 49 50 51 52 53 54 53 52 52 47 38 36 36 34 34 33 29 25 22
45 46 45 45 46 46 46 47 47 47 47 48 48 49 50 51 51 52 53 53 54 54 54 54 50 39 40 41 37 35 33 29 27
45 46 47 47 48 48 48 48 49 49 49 49 49 49 49 50 51 52 52 53 53 54 54 54 53 53 42 42 41 38 35 32 30
44 46 47 48 48 48 49 49 49 50 50 50 50 51 51 51 51 52 52 53 54 54 55 54 56 56 54 43 43 41 38 34 33
45 45 46 47 48 50 52 55 58 59 58 57 56 54 54 54 53 53 54 54 55 56 56 56 57 59 59 55 45 44 42 38 36
43 50 52 54 55 58 61 62 60 58 55 58 62 64 64 65 64 61 59 57 57 58 59 58 59 60 61 62 55 50 48 45 40
37 45 52 58 57 55 47 39 36 33 34 37 44 52 62 64 66 68 68 67 65 67 69 67 64 62 63 65 64 58 54 53 50
31 41 53 51 46 43 41 41 41 39 41 44 44 44 50 56 59 59 64 70 72 73 75 76 76 73 68 67 69 68 61 57 58
35 36 41 47 46 45 47 46 48 48 51 55 55 53 49 49 49 51 52 55 60 68 74 78 83 82 80 75 70 72 73 67 63
27 31 41 47 47 47 49 52 55 58 64 66 58 58 52 47 45 51 56 60 64 68 74 77 81 87 90 88 83 80 84 83 71
31 34 36 44 51 58 62 66 69 70 66 55 39 33 37 35 49 55 64 62 65 71 80 81 81 80 88 90 91 91 84 82 86
15 16 22 24 37 45 62 62 53 46 34 27 29 34 30 38 56 64 73 73 70 69 72 82 87 92 94 93 95 100 100 100 96
14 13 14 16 18 19 23 26 22 22 26 34 40 42 44 46 41 44 59 62 67 73 74 85 80 82 82 83 94 100 99 99 100
16 17 19 21 21 20 23 27 28 29 35 44 59 54 43 35 30 34 42 44 56 61 70 91 85 82 92 95 96 99 100 98 97
16 17 18 21 23 22 21 24 24 25 29 44 33 38 62 63 60 55 54 46 38 42 44 48 54 54 63 71 79 100 100 99 98

GFSFLT1_700_rhum_075.txt.gz
RH
25 26 27 29 30 33 34 36 37 37 38 38 37 38 38 39 39 39 39 38 38 37 37 36 34 30 26 22 20 19 36 65 62
36 31 25 24 22 24 25 27 28 30 30 29 30 30 30 31 32 32 32 31 31 31 31 30 31 34 33 30 26 21 35 44 31
42 43 45 46 46 44 39 33 28 28 30 33 35 37 37 38 39 41 41 42 42 41 38 31 30 30 31 32 30 26 22 18 17
45 47 47 47 47 48 48 48 46 43 41 40 40 40 41 45 47 46 48 50 50 49 47 43 34 33 30 30 32 31 28 23 20
47 47 48 48 48 48 48 48 48 47 46 47 48 48 49 50 51 52 52 51 50 51 53 53 48 36 38 36 33 32 32 28 24
46 45 45 46 46 46 47 47 47 47 47 48 48 50 50 51 52 52 53 53 52 51 50 49 49 49 39 39 40 36 34 32 28
46 46 46 46 46 46 47 47 48 48 49 49 49 49 49 50 50 51 52 53 54 54 53 52 52 52 51 42 39 39 36 35 32
44 45 46 47 47 48 48 49 49 50 50 50 51 51 51 51 51 51 52 52 53 54 54 54 54 54 55 55 45 41 39 37 34
43 44 46 47 48 48 49 49 50 50 53 55 56 56 54 53 53 53 53 53 54 54 55 56 56 56 56 57 58 50 44 42 38
48 47 47 46 47 49 51 55 59 59 60 60 60 59 58 60 60 60 59 58 57 56 56 57 58 58 58 58 60 60 54 47 45
38 40 45 51 53 56 58 58 58 56 49 42 37 37 39 43 54 62 66 67 68 66 64 63 64 64 62 61 60 63 63 57 51
29 31 38 44 46 49 54 52 45 39 38 39 38 37 39 39 40 46 52 58 63 69 74 76 73 71 69 67 64 62 65 66 60
35 31 32 38 47 49 48 44 42 43 44 44 46 48 48 49 48 48 51 54 57 60 66 75 76 74 74 75 73 70 66 72 71
39 35 37 39 40 40 41 44 46 45 48 53 53 56 56 57 57 54 50 51 58 61 65 68 70 75 78 79 81 83 78 73 76
38 34 30 36 39 44 49 50 52 54 60 65 66 66 64 52 42 40 43 45 59 68 68 69 71 76 78 78 79 85 90 88 82
36 30 28 28 37 39 48 51 59 62 68 72 58 44 32 21 26 38 37 48 68 70 68 70 74 80 89 87 86 85 86 88 88
25 22 19 16 15 17 23 24 27 31 42 38 25 19 24 32 39 47 45 46 49 58 71 71 73 73 74 82 83 84 91 92 100
18 16 15 13 13 13 15 16 17 17 18 22 28 29 31 42 49 39 36 43 46 44 47 54 66 68 68 89 84 90 86 99 99
16 15 14 14 14 15 17 18 20 24 34 25 26 26 29 44 32 41 61 59 59 47 37 36 39 41 48 48 51 62 58 76 96
12 13 14 16 18 20 22 22 20 18 19 18 18 22 25 28 30 41 48 45 38 31 31 36 38 44 48 55 57 53 52 78 91

GFSFLT1_700_rhum_081.txt.gz
RH
24 25 26 27 27 29 30 30 28 27 27 27 25 26 27 25 27 28 28 27 28 28 26 23 22 24 24 28 28 32 27 45 32
26 25 23 23 24 24 24 24 25 27 29 30 30 30 32 30 32 33 31 32 34 34 32 31 28 26 25 24 25 28 28 27 23
38 42 44 45 46 46 47 47 46 45 43 42 43 44 45 43 43 41 40 39 37 35 32 32 34 34 31 32 31 28 28 28 28
44 46 47 48 48 48 48 48 48 48 48 48 48 49 49 49 50 50 50 50 49 48 47 45 42 41 41 36 34 36 36 33 31
46 47 47 47 47 47 47 47 47 48 48 48 48 49 49 49 49 50 50 50 51 51 51 51 51 50 47 45 43 37 36 35 33
45 46 46 46 46 46 46 47 47 48 48 49 49 50 50 50 51 51 51 51 51 51 52 52 53 53 53 52 49 46 42 38 36
45 45 45 46 46 46 47 47 48 48 49 49 50 50 51 52 53 54 53 53 53 53 53 53 54 54 54 54 54 53 52 51 43
43 44 44 45 46 46 47 47 48 48 49 49 51 53 56 57 57 56 55 54 55 56 58 57 57 56 56 56 56 56 56 55 56
40 40 42 43 44 45 46 47 47 48 50 53 56 56 57 54 45 37 36 35 36 38 44 57 62 62 62 60 59 59 59 58 57
41 43 44 46 46 47 47 47 48 49 52 52 51 49 41 36 36 36 35 36 37 37 36 36 40 53 61 64 65 66 66 64 62
35 35 34 33 34 36 38 38 43 45 47 49 46 40 39 41 42 43 44 44 45 45 44 43 41 41 44 47 50 56 66 67 66
29 30 30 30 29 28 26 28 34 41 45 45 42 41 44 46 48 51 53 55 57 56 48 48 45 41 42 45 47 49 54 63 67
36 38 39 39 39 37 32 30 32 36 40 42 44 45 48 52 57 60 63 66 65 55 39 36 38 41 40 48 57 60 59 61 66
40 42 42 42 43 42 35 32 30 31 35 37 42 53 56 57 59 60 67 70 50 28 23 24 36 40 39 58 66 69 64 66 67
39 41 43 42 41 40 36 32 30 32 32 37 37 44 49 47 45 45 42 32 24 26 35 42 42 43 54 67 68 72 73 69 78
32 32 31 31 31 32 33 36 36 37 34 33 39 35 38 37 19 20 22 28 31 35 52 46 39 39 39 48 63 68 71 61 67
24 23 24 26 26 26 29 29 32 27 24 21 26 26 26 33 26 24 26 23 25 33 30 44 58 56 55 51 48 51 54 57 55
27 27 26 24 22 22 23 25 24 20 20 21 23 37 39 47 40 26 19 20 26 28 31 46 48 43 36 28 26 26 32 37 40
26 22 18 16 15 14 15 16 17 18 18 21 22 26 29 30 26 26 24 35 46 41 48 43 39 26 26 23 21 27 28 30 33
23 20 18 14 12 12 13 14 16 18 22 23 22 21 20 22 25 30 49 57 48 46 47 42 31 27 23 24 27 30 31 32 34

GFSFLT1_700_rhum_084.txt.gz
RH
24 23 23 22 23 22 22 22 22 22 23 24 25 25 26 23 24 26 27 27 27 27 26 26 25 24 23 24 23 25 26 26 25
20 19 19 19 20 21 22 22 24 26 29 32 34 36 39 34 36 38 37 37 36 34 32 29 29 31 29 28 29 27 26 28 28
35 37 40 41 43 45 46 48 49 49 49 49 49 49 49 50 50 50 50 50 50 49 48 47 44 39 33 32 32 32 33 33 31
44 46 47 48 48 48 48 48 48 48 48 48 48 49 49 50 50 51 51 51 51 51 52 52 52 52 51 46 40 36 34 34 34
46 47 47 48 48 48 48 48 48 49 49 49 50 50 51 51 52 52 52 52 52 52 53 53 53 54 54 54 53 50 45 42 37
46 46 46 46 47 47 47 47 48 48 49 49 50 50 51 52 54 55 56 55 55 55 55 55 54 55 55 55 56 55 54 52 49
45 45 45 46 46 46 47 47 48 49 49 49 50 51 53 54 56 56 53 47 44 47 48 51 56 59 59 58 58 57 57 57 56
42 42 42 43 44 45 46 47 47 48 48 48 50 52 52 51 47 41 36 34 33 34 36 37 39 46 54 60 62 61 61 61 61
39 39 40 41 42 44 45 46 46 46 47 49 50 47 47 44 38 36 38 38 40 41 40 41 41 40 40 41 44 51 58 62 66
39 41 40 37 37 37 35 36 35 36 37 36 39 45 42 38 39 41 43 46 47 50 50 52 47 43 44 41 41 44 46 50 53
38 30 27 26 26 26 26 25 23 24 27 33 36 36 37 40 43 46 48 52 57 60 63 63 56 39 29 33 38 42 50 53 53
27 29 32 33 34 35 35 33 27 24 24 27 30 32 38 43 46 49 53 55 59 65 73 65 45 26 24 32 47 41 49 59 65
33 35 37 38 38 37 37 39 36 31 27 25 28 32 36 40 50 48 50 49 39 35 32 29 26 32 40 54 47 57 56 61 65
36 37 40 40 38 36 35 35 35 32 30 32 34 35 31 31 34 36 39 43 31 24 18 24 28 40 45 44 49 56 63 50 58
36 37 38 38 33 30 30 29 29 29 33 34 39 38 27 26 26 34 32 26 26 28 29 26 35 49 37 38 38 38 43 53 68
28 28 27 28 24 25 28 31 32 33 43 41 40 34 22 22 25 29 32 28 32 28 33 33 41 32 37 48 50 52 51 49 48
27 26 26 26 26 27 27 27 26 25 25 29 24 18 17 18 26 31 34 33 23 24 25 28 30 31 41 46 43 36 30 30 28
28 28 28 28 27 24 20 18 17 16 15 17 21 20 20 22 28 31 31 26 24 31 41 46 38 45 45 42 31 24 23 22 25
31 30 28 26 23 21 19 17 15 14 14 16 19 22 25 24 24 27 24 31 31 46 53 44 46 47 40 27 27 24 26 28 30
32 30 28 26 23 21 17 14 14 14 16 19 21 23 23 22 23 24 29 60 68 84 38 41 61 47 24 29 25 26 28 32 33

GFSFLT1_700_rhum_090.txt.gz
RH
19 18 17 17 17 18 18 20 24 29 37 43 48 48 49 48 50 50 49 50 51 51 51 52 51 50 50 45 36 31 31 31 31
16 18 19 22 25 30 36 42 43 42 42 43 44 46 49 47 50 48 49 49 50 50 52 52 53 54 55 55 54 53 46 38 34
30 33 36 38 41 44 46 48 49 50 50 51 51 51 52 53 54 54 54 54 53 53 53 53 54 54 55 56 56 56 56 55 51
41 44 47 48 49 50 50 50 50 50 51 51 51 50 50 53 55 56 55 52 48 45 44 46 46 48 53 57 58 58 58 58 58
42 44 47 48 48 48 49 49 49 50 50 50 50 50 49 52 56 56 48 39 35 34 33 34 34 35 38 45 54 59 61 61 60
44 45 46 47 47 48 48 48 48 49 49 49 49 49 49 49 53 49 37 35 36 38 39 39 39 40 40 39 40 43 52 61 64
44 44 45 45 45 45 46 46 47 47 48 48 47 48 45 43 48 40 35 37 40 44 45 48 50 51 54 50 42 41 43 47 52
42 42 42 42 42 43 43 45 45 45 42 39 41 42 38 38 43 37 38 39 42 46 51 54 56 59 62 58 50 36 36 42 47
40 40 41 40 38 34 29 28 29 29 26 26 27 28 34 35 35 37 39 41 43 47 50 51 56 54 57 54 42 33 35 40 42
39 38 39 30 27 26 27 27 28 29 25 22 21 21 23 26 28 30 34 36 38 43 41 40 35 37 47 42 46 55 46 53 53
38 39 34 28 29 31 32 32 31 30 32 32 30 27 25 26 29 34 36 30 31 35 34 40 33 22 27 38 57 76 79 76 70
37 40 28 28 31 32 30 29 29 27 25 24 25 26 28 33 36 41 39 28 22 22 32 31 23 21 44 70 60 58 73 81 80
36 38 29 29 30 31 30 28 26 24 24 25 27 28 28 32 34 40 39 26 20 21 22 28 41 60 54 32 54 46 54 67 73
40 32 32 31 30 29 26 26 25 23 24 25 26 25 24 23 22 28 27 20 19 21 26 29 24 17 17 22 26 27 32 40 51
40 33 33 31 27 26 24 23 24 24 24 23 23 20 18 16 16 16 17 19 19 22 28 28 22 21 21 27 30 34 32 38 48
38 36 35 32 27 25 24 24 24 24 24 23 21 20 19 17 15 14 17 18 19 21 60 52 35 39 27 44 48 40 43 48 42
41 39 33 30 28 27 26 26 26 25 24 24 23 21 18 15 13 13 17 23 21 18 24 61 34 33 42 43 51 46 44 44 39
62 42 39 36 31 29 28 27 27 26 26 26 24 20 17 14 13 14 16 18 19 21 26 23 32 39 35 40 39 46 51 36 25
67 58 64 37 32 30 28 28 29 28 26 24 20 18 16 17 14 15 19 23 23 22 24 27 46 53 41 24 22 31 28 25 29
80 47 38 36 33 31 31 30 29 27 25 21 18 16 17 20 22 21 22 25 27 26 27 31 45 80 59 35 19 21 25 31 28

GFSFLT1_700_rhum_093.txt.gz
RH
19 18 16 16 17 18 22 29 37 41 42 41 41 41 41 42 43 46 46 48 46 48 48 49 51 52 52 52 52 53 52 45 37
16 17 19 26 32 36 36 37 41 45 48 49 49 50 50 52 52 52 51 51 50 50 46 48 47 48 50 53 54 55 55 55 54
27 30 34 39 44 47 47 48 49 51 51 51 51 51 51 51 52 52 49 46 42 38 34 36 36 37 40 46 50 54 56 57 58
37 41 44 48 49 50 50 50 50 50 50 50 50 50 51 51 50 50 45 36 34 33 32 34 35 35 36 36 37 43 51 57 59
38 41 45 47 48 48 49 49 49 50 50 49 48 48 49 51 50 46 39 34 35 36 38 40 41 43 46 44 39 39 40 45 54
43 44 46 46 47 47 48 48 48 49 48 48 47 44 46 48 47 43 37 35 38 40 43 46 50 52 54 56 52 44 36 39 43
45 45 45 45 44 44 45 46 46 47 46 43 41 39 40 39 43 40 36 35 38 40 43 44 46 49 51 56 54 45 34 27 37
45 44 44 43 42 41 40 40 40 38 35 32 29 30 29 30 37 38 36 34 36 39 40 38 36 39 38 37 46 44 38 33 33
44 43 42 40 39 35 29 27 26 27 27 24 22 23 24 24 29 29 29 30 30 28 27 30 30 32 29 48 47 28 57 49 48
43 42 40 37 28 27 27 29 31 32 32 32 29 28 28 25 25 28 33 39 38 31 31 24 26 60 26 32 64 71 71 76 74
43 42 39 34 27 29 30 31 30 27 26 26 29 30 28 29 30 34 37 43 40 32 24 21 24 45 40 67 74 81 78 82 81
42 42 39 32 29 31 30 29 28 24 23 23 23 24 27 28 30 34 38 41 39 25 19 20 30 83 83 71 71 59 68 67 80
42 41 39 33 31 32 30 26 24 24 23 23 24 24 24 24 23 22 20 19 20 17 20 20 22 56 32 30 41 53 32 40 50
42 40 40 33 32 31 29 27 24 24 24 24 24 24 23 21 19 18 16 16 16 18 18 19 24 28 21 21 23 26 25 26 27
42 38 41 33 33 33 30 26 24 24 24 24 23 22 22 22 21 19 15 15 18 19 22 23 36 29 31 23 23 32 42 39 37
42 40 41 35 36 33 28 26 26 25 25 23 23 23 24 23 21 17 15 15 17 20 24 25 51 93 38 26 30 35 39 45 42
44 48 43 42 37 31 30 30 28 26 26 26 26 23 24 23 20 17 15 16 16 18 20 21 30 38 42 30 38 47 45 43 45
62 64 66 58 48 53 37 31 29 28 28 29 29 27 24 22 20 18 16 17 17 20 21 24 26 44 42 51 41 39 36 38 45
91 93 94 80 78 66 35 32 32 31 30 29 27 26 24 21 20 18 17 18 21 22 24 25 28 38 45 50 60 42 32 27 24
84 70 85 89 82 55 37 35 32 30 28 27 24 22 21 20 21 19 20 21 21 23 25 27 28 36 45 89 37 32 26 26 33